Voltar ao catálogo

TRYAD 2

AtivoCiênciaSSO
NORAD 66761·PAYLOAD·🇯🇵 Japan
Este nome de satélite ainda não foi confirmado por fontes oficiais.

Lançado Nov 28, 2025 de Vandenberg Space Force Base

Loading…

Próximas Passagens (próximas 24 horas)

TLE

AtualizadoSource: Space-Track

Época: Sep 13, 2026, 22:33 UTC

1 66761U 25276CZ  26256.93969488  .00007728  00000-0  32575-3 0  9994
2 66761  97.4110 329.8573 0001173  62.5718 297.5638 15.23601084 43960

Acompanhe TRYAD 2 em tempo real com AllMySat

Download on the App Store